[[{"header":{"parameterUnit":"m.s-1","parameterCategory":1,"la1":30.2991,"la2":30.254,"lo1":-89.0895,"lo2":-89.0444,"dy":0.0017,"dx":0.0017,"nx":28,"ny":28,"refTime":"2023-11-15T03:00:00:Z","depth":0,"parameterNumber":2,"parameterNumberName":"U-component_of_WINDS"},"data":[0,0,0,0,0,0,0,0,0,0,0,0,0,0,0,0,0,0,0,0,0,0,0,0,0,0,0,0,0,0,0,0,0,0,0,0,0,0,0,0,0,0,0,0,0,0,0,0,0,0,0,0,0,0,0,0,0,0,-2.8932,-2.8936,0,-2.9273,-2.9277,-2.9281,-2.9361,-2.9359,-2.9357,-2.9355,-2.9708,-2.9719,-2.973,0,0,0,0,0,0,0,0,0,0,0,0,0,-2.8356,-2.8366,-2.8932,-2.8936,-2.8941,-2.9272,-2.9277,-2.9282,-2.9362,-2.9359,-2.9356,-2.9353,-2.9704,-2.9717,-2.9731,0,0,0,0,0,0,0,0,0,0,0,0,0,-2.8642,-2.8369,-2.8931,-2.902,-2.9032,-2.9271,-2.9277,-2.9283,-2.9362,-2.9359,-2.9355,-2.9352,-2.9699,-2.9716,-2.9733,-2.991,0,0,-2.9786,-2.9794,0,0,0,0,0,0,0,0,-2.8626,-2.8663,-2.9003,-2.9015,-2.9028,-2.9271,-2.9203,-2.9493,-2.9363,-2.9237,-2.9354,-2.935,-2.9565,-2.9594,-2.9665,-2.9926,-2.9941,-2.9788,-2.9798,-2.9806,-2.9811,0,0,0,0,0,0,0,-2.8606,-2.8649,-2.9067,-2.9008,-2.9023,-2.9045,-2.9082,-2.9259,-2.9417,-2.9248,-2.9254,-2.9293,-2.9572,-2.9648,-2.9674,-2.9946,-2.9787,-2.9803,-2.9813,-2.982,-3.0373,-3.0377,0,0,0,0,0,0,-2.857,-2.8632,-2.9056,-2.9077,-2.8814,-2.9058,-2.9099,-2.9197,-2.9415,-2.9445,-2.9296,-2.9296,-2.962,-2.9654,-2.9687,-2.991,-2.9806,-2.9822,-2.9832,-3.0368,-3.0374,-3.0378,0,0,0,0,0,0,-2.8557,-2.8607,-2.9043,-2.8857,-2.8914,-2.9072,-2.918,-2.9205,-2.9282,-2.9451,-2.948,-2.9345,-2.9619,-2.9662,-2.9854,-2.9923,-2.983,-2.9845,-3.0363,-3.037,-3.0376,-3.0356,0,0,0,0,0,0,-2.854,-2.8602,-2.8669,-2.8858,-2.8923,-2.9202,-2.9184,-2.9214,-2.9311,-2.9314,-2.9505,-2.9533,-2.962,-2.9828,-2.9871,-2.9946,-2.9859,-3.0358,-3.0366,-3.0374,-3.0351,-3.0361,-3.0369,0,0,0,0,0,-2.8519,-2.865,-2.8672,-2.8723,-2.9011,-2.9206,-2.9244,-2.9339,-2.9316,-2.9386,-2.9496,-2.9527,-2.9908,-2.9847,-2.9896,-2.9977,-3.0354,-3.0364,-3.0373,-3.0347,-3.0359,-3.0369,0,0,0,0,0,0,-2.8467,-2.8677,-2.8703,-2.8899,-2.9034,-2.9219,-2.9311,-2.9348,-2.9494,-2.9491,-2.9604,-2.9647,-2.9832,-2.9924,-2.9851,-3.0161,-3.0131,-3.0151,-3.0094,-3.0107,-3.0116,-3.0091,-2.9873,0,0,0,0,0,-2.8478,-2.8618,-2.8794,-2.895,-2.9016,-2.9151,-2.924,-2.9302,-2.9447,-2.9505,-2.9628,-2.9769,-2.9921,-3.0019,-3.0168,-3.0364,-3.0409,-3.0445,-3.0453,-3.046,-3.0477,-3.0591,-3.061,-3.041,-3.041,-3.0409,0,0,-2.8503,-2.8635,-2.8716,-2.8942,-2.9055,-2.9199,-2.9199,-2.9351,-2.946,-2.9529,-2.9718,-2.9813,-2.9978,-3.0173,-3.0266,-3.0255,-3.0542,-3.0472,-3.0476,-3.049,-3.0603,-3.0621,-3.0638,-3.0416,-3.0415,-3.0414,0,0,-2.8622,-2.8734,-2.8878,-2.899,-2.9159,-2.9249,-2.9283,-2.9463,-2.9529,-2.972,-2.9775,-2.9907,-3.0165,-3.0281,-3.0374,-3.0538,-3.0574,-3.0584,-3.0632,-3.0741,-3.0757,-3.0772,-3.0833,-3.0853,-3.0599,-3.0599,-3.0599,0,-2.8632,-2.885,-2.8947,-2.9097,-2.9196,-2.9264,-2.9411,-2.9516,-2.9725,-2.9793,-2.9778,-3.0105,-3.0221,-3.0446,-3.0486,-3.0558,-3.0603,-3.0563,-3.0747,-3.0762,-3.0777,-3.0837,-3.086,-3.0599,-3.0599,-3.0599,-3.0599,0,-2.8855,-2.9005,-2.9101,-2.9301,-2.9411,-2.9558,-2.968,-2.9779,-2.9832,-2.9923,-3.0118,-3.0259,-3.0439,-3.0496,-3.0549,-3.073,-3.0719,-3.0724,-3.0697,-3.0795,-3.0853,-3.0877,-3.06,-3.06,-3.06,-3.06,0,0,-2.8951,-2.9203,-2.9237,-2.933,-2.9522,-2.9641,-2.9793,-2.9968,-3.0052,-3.0195,-3.0327,-3.0544,-3.0551,-3.0656,-3.0722,-3.0818,-3.0943,-3.0812,-3.0818,-3.0834,-3.1154,-3.1151,-3.1176,-3.0967,-3.0971,-3.0975,-3.1141,0,-2.9095,-2.9368,-2.946,-2.9687,-2.9829,-2.9895,-3.0028,-3.0161,-3.0251,-3.0386,-3.0486,-3.0639,-3.0634,-3.0699,-3.0796,-3.0906,-3.1009,-3.0896,-3.1093,-3.1099,-3.1052,-3.1206,-3.1203,-3.1352,-3.1164,-3.1168,-3.1171,0,-2.9301,-2.9446,-2.9686,-2.9863,-2.9926,-3.0043,-3.0212,-3.0339,-3.0493,-3.0551,-3.0669,-3.0729,-3.0893,-3.0854,-3.1083,-3.1003,-3.109,-3.1156,-3.1164,-3.1189,-3.1142,-3.1236,-3.1402,-3.1425,-3.1207,-3.1204,-3.1202,0,-2.935,-2.9605,-2.9783,-2.986,-3.0069,-3.0151,-3.0242,-3.0392,-3.0492,-3.064,-3.0707,-3.0871,-3.0963,-3.109,-3.1194,-3.1155,-3.1414,-3.1383,-3.147,-3.1468,-3.1523,-3.1519,-3.1708,-3.1574,-3.1574,-3.1573,-3.1573,0,-2.9503,-2.9648,-2.9808,-2.9917,-3.0083,-3.0188,-3.0349,-3.0445,-3.0578,-3.0709,-3.0776,-3.0898,-3.1026,-3.1166,-3.1247,-3.1426,-3.1466,-3.152,-3.1541,-3.1516,-3.1509,-3.1575,-3.1569,-3.158,-3.1578,-3.1577,-3.1576,0,-2.9586,-2.9699,-2.9897,-3.0079,-3.0129,-3.0243,-3.04,-3.051,-3.0602,-3.0767,-3.0812,-3.0958,-3.1126,-3.1241,-3.1456,-3.1511,-3.1705,-3.1723,-3.1653,-3.1664,-3.1745,-3.1736,-3.1985,-3.2024,-3.1861,-3.1863,-3.1864,0,-2.9677,-2.9791,-2.9985,-3.0077,-3.0168,-3.0316,-3.0418,-3.0527,-3.0631,-3.0815,-3.0904,-3.1075,-3.1218,-3.1483,-3.161,-3.1775,-3.1799,-3.1875,-3.1825,-3.1797,-3.1804,-3.1797,-3.181,-3.1883,-3.1884,-3.1885,-3.1886,0,-2.9828,-2.9879,-3.0023,-3.0188,-3.0308,-3.0443,-3.0578,-3.065,-3.0783,-3.0897,-3.1069,-3.1179,-3.1399,-3.157,-3.1748,-3.1844,-3.1889,-3.1901,-3.193,-3.1907,-3.1863,-3.189,-3.1677,-3.1895,-3.1894,-3.1894,-3.1893,-3.1893,-2.9921,-3.0025,-3.0179,-3.0338,-3.0452,-3.0577,-3.069,-3.0797,-3.0941,-3.1128,-3.1184,-3.1363,-3.1516,-3.1759,-3.1858,-3.2001,-3.1996,-3.2037,-3.2049,-3.2058,-3.2059,-3.1837,-3.2034,-3.2034,-3.2034,-3.2034,-3.2034,0,-3.0077,-3.0179,-3.0325,-3.0512,-3.0638,-3.0667,-3.082,-3.0923,-3.108,-3.1218,-3.1358,-3.1556,-3.1723,-3.1862,-3.2035,-3.2123,-3.2148,-3.2165,-3.2161,-3.2183,-3.2053,-3.2011,-3.2142,-3.2142,-3.2142,-3.2142,-3.2142,-3.2142,-3.0173,-3.0353,-3.0422,-3.0659,-3.0761,-3.0936,-3.1021,-3.1139,-3.125,-3.1468,-3.1606,-3.1696,-3.1836,-3.2019,-3.2174,-3.2211,-3.2273,-3.2286,-3.2327,-3.2204,-3.2191,-3.218,-3.2142,-3.2297,-3.2298,-3.2446,-3.2447,-3.2448]},{"header":{"parameterUnit":"m.s-1","parameterCategory":1,"la1":30.2991,"la2":30.254,"lo1":-89.0895,"lo2":-89.0444,"dy":0.0017,"dx":0.0017,"nx":28,"ny":28,"refTime":"2023-11-15T03:00:00:Z","depth":0,"parameterNumber":3,"parameterNumberName":"V-component_of_WINDS"},"data":[0,0,0,0,0,0,0,0,0,0,0,0,0,0,0,0,0,0,0,0,0,0,0,0,0,0,0,0,0,0,0,0,0,0,0,0,0,0,0,0,0,0,0,0,0,0,0,0,0,0,0,0,0,0,0,0,0,0,-8.1843,-8.1843,0,-8.19,-8.1901,-8.1901,-8.1788,-8.1785,-8.1781,-8.1777,-8.1831,-8.1835,-8.184,0,0,0,0,0,0,0,0,0,0,0,0,0,-8.1629,-8.1634,-8.1843,-8.1843,-8.1844,-8.19,-8.1901,-8.1902,-8.1789,-8.1784,-8.178,-8.1776,-8.1829,-8.1835,-8.1841,0,0,0,0,0,0,0,0,0,0,0,0,0,-8.1708,-8.1635,-8.1842,-8.1795,-8.1791,-8.19,-8.1901,-8.1902,-8.179,-8.1784,-8.1779,-8.1774,-8.1827,-8.1834,-8.1841,-8.1998,0,0,-8.1864,-8.1867,0,0,0,0,0,0,0,0,-8.1704,-8.1716,-8.1801,-8.1798,-8.1794,-8.1832,-8.1845,-8.1934,-8.1791,-8.179,-8.1777,-8.1771,-8.1835,-8.1841,-8.1864,-8.2,-8.2002,-8.1864,-8.1869,-8.1872,-8.1874,0,0,0,0,0,0,0,-8.1698,-8.1713,-8.1865,-8.1802,-8.1798,-8.1769,-8.1774,-8.1861,-8.1843,-8.179,-8.1782,-8.1791,-8.1832,-8.1857,-8.1865,-8.2003,-8.1864,-8.1871,-8.1875,-8.1878,-8.227,-8.2276,0,0,0,0,0,0,-8.17,-8.1709,-8.1863,-8.1867,-8.1735,-8.1777,-8.1783,-8.1825,-8.1842,-8.1839,-8.1795,-8.1785,-8.1848,-8.1856,-8.1866,-8.205,-8.1872,-8.1879,-8.1883,-8.2264,-8.2272,-8.2278,0,0,0,0,0,0,-8.1696,-8.1715,-8.1861,-8.1786,-8.1802,-8.1787,-8.1835,-8.1829,-8.1854,-8.1846,-8.1841,-8.1825,-8.1844,-8.1856,-8.1966,-8.2051,-8.1882,-8.1889,-8.2257,-8.2267,-8.2275,-8.2421,0,0,0,0,0,0,-8.169,-8.1714,-8.1774,-8.1788,-8.1807,-8.1963,-8.184,-8.1834,-8.1868,-8.1855,-8.1872,-8.187,-8.184,-8.1956,-8.1974,-8.2058,-8.1894,-8.225,-8.2261,-8.2272,-8.2408,-8.2434,-8.2456,0,0,0,0,0,-8.1683,-8.1812,-8.1778,-8.1797,-8.1882,-8.1968,-8.1978,-8.1943,-8.1875,-8.1935,-8.193,-8.1869,-8.2039,-8.1968,-8.1987,-8.2075,-8.2244,-8.2258,-8.2271,-8.2398,-8.2429,-8.2455,0,0,0,0,0,0,-8.1805,-8.1812,-8.1775,-8.1913,-8.1941,-8.1948,-8.2023,-8.1977,-8.2023,-8.2009,-8.1961,-8.1966,-8.2086,-8.2091,-8.2012,-8.2227,-8.213,-8.2148,-8.222,-8.2249,-8.2272,-8.2268,-8.19,0,0,0,0,0,-8.1849,-8.192,-8.1921,-8.2042,-8.2058,-8.2039,-8.2074,-8.2045,-8.2071,-8.2082,-8.2084,-8.211,-8.2169,-8.2209,-8.2263,-8.2408,-8.241,-8.2478,-8.2501,-8.2521,-8.2537,-8.2615,-8.2645,-8.2323,-8.2323,-8.2323,0,0,-8.1939,-8.1951,-8.1998,-8.2067,-8.2085,-8.2158,-8.2049,-8.213,-8.2183,-8.2093,-8.2199,-8.2202,-8.2227,-8.2357,-8.2414,-8.2365,-8.2626,-8.2538,-8.2554,-8.2559,-8.2632,-8.2662,-8.269,-8.2332,-8.233,-8.2329,0,0,-8.214,-8.2157,-8.226,-8.2281,-8.2311,-8.2297,-8.2322,-8.2337,-8.2337,-8.2442,-8.2376,-8.2438,-8.254,-8.2562,-8.2586,-8.2797,-8.2743,-8.2815,-8.2938,-8.3015,-8.304,-8.3062,-8.3138,-8.3166,-8.2831,-8.2832,-8.2832,0,-8.2247,-8.2356,-8.2318,-8.2405,-8.2437,-8.2361,-8.2465,-8.2486,-8.2532,-8.2555,-8.25,-8.2628,-8.264,-8.2773,-8.2825,-8.2847,-8.2873,-8.2813,-8.304,-8.3062,-8.3082,-8.3154,-8.3182,-8.284,-8.2839,-8.2839,-8.2838,0,-8.2486,-8.2563,-8.2642,-8.2691,-8.2732,-8.2827,-8.2802,-8.2847,-8.2815,-8.2806,-8.2914,-8.2926,-8.2982,-8.3011,-8.2979,-8.314,-8.3109,-8.3048,-8.2949,-8.3122,-8.3189,-8.3216,-8.2853,-8.285,-8.2847,-8.2845,0,0,-8.2766,-8.2794,-8.2824,-8.2845,-8.2873,-8.2931,-8.3021,-8.3078,-8.3118,-8.3151,-8.3226,-8.3315,-8.3259,-8.3287,-8.3257,-8.3324,-8.3491,-8.3254,-8.3254,-8.3298,-8.367,-8.3716,-8.3749,-8.3455,-8.346,-8.3464,-8.3668,0,-8.2966,-8.3125,-8.3094,-8.3249,-8.3319,-8.3249,-8.3328,-8.3353,-8.3347,-8.3405,-8.3397,-8.3462,-8.3383,-8.3399,-8.3463,-8.3457,-8.3565,-8.3442,-8.3523,-8.3527,-8.352,-8.3783,-8.3832,-8.4024,-8.3693,-8.3698,-8.3701,0,-8.322,-8.3267,-8.343,-8.3448,-8.3476,-8.3548,-8.3598,-8.3654,-8.368,-8.3671,-8.3704,-8.3661,-8.3749,-8.365,-8.3771,-8.3689,-8.372,-8.3722,-8.3729,-8.3735,-8.3625,-8.3797,-8.4084,-8.4113,-8.3741,-8.3738,-8.3735,0,-8.3409,-8.3512,-8.3623,-8.3643,-8.3667,-8.3719,-8.3731,-8.3752,-8.3788,-8.3831,-8.3854,-8.3905,-8.3934,-8.3974,-8.3946,-8.3876,-8.4072,-8.397,-8.4066,-8.4068,-8.4111,-8.4109,-8.4408,-8.4131,-8.413,-8.413,-8.4129,0,-8.3636,-8.3739,-8.3708,-8.3777,-8.3889,-8.3852,-8.3963,-8.3966,-8.3986,-8.4053,-8.3993,-8.4057,-8.4015,-8.4075,-8.4053,-8.4157,-8.4169,-8.4164,-8.4157,-8.417,-8.4171,-8.419,-8.4176,-8.4137,-8.4136,-8.4134,-8.4133,0,-8.3866,-8.385,-8.3966,-8.398,-8.3986,-8.4068,-8.4079,-8.4142,-8.4132,-8.4217,-8.4235,-8.422,-8.4287,-8.4263,-8.4333,-8.4318,-8.4452,-8.4427,-8.4444,-8.4438,-8.4536,-8.4528,-8.4858,-8.49,-8.4596,-8.4599,-8.4601,0,-8.4012,-8.409,-8.4113,-8.4155,-8.4172,-8.4239,-8.4276,-8.4242,-8.4283,-8.432,-8.4379,-8.4441,-8.4489,-8.4599,-8.4593,-8.4647,-8.4623,-8.4736,-8.4631,-8.4642,-8.4626,-8.4622,-8.463,-8.4757,-8.476,-8.4763,-8.4765,0,-8.4274,-8.4263,-8.432,-8.4376,-8.4423,-8.4464,-8.45,-8.4537,-8.4504,-8.4553,-8.4623,-8.466,-8.4734,-8.4796,-8.4845,-8.4854,-8.4805,-8.4798,-8.4824,-8.4838,-8.4845,-8.4843,-8.4502,-8.4791,-8.4788,-8.4787,-8.4785,-8.4784,-8.4467,-8.4533,-8.456,-8.4626,-8.465,-8.4686,-8.4746,-8.4745,-8.4803,-8.4862,-8.4838,-8.4918,-8.4942,-8.5002,-8.5019,-8.508,-8.5036,-8.5073,-8.5082,-8.5092,-8.5105,-8.4835,-8.5089,-8.5088,-8.5087,-8.5086,-8.5086,0,-8.4726,-8.474,-8.4802,-8.4856,-8.4908,-8.4858,-8.4896,-8.4942,-8.5014,-8.5042,-8.5091,-8.5171,-8.5231,-8.5231,-8.5287,-8.5336,-8.5315,-8.5352,-8.5348,-8.5351,-8.5141,-8.5114,-8.5368,-8.5368,-8.5368,-8.5368,-8.5368,-8.5368,-8.4867,-8.4977,-8.4969,-8.509,-8.5103,-8.5183,-8.5209,-8.524,-8.5262,-8.5355,-8.5406,-8.5406,-8.5423,-8.548,-8.5533,-8.5531,-8.5554,-8.5601,-8.559,-8.5394,-8.5366,-8.5339,-8.5314,-8.5606,-8.5606,-8.5795,-8.5797,-8.5799]}]]